DELTA 4 R/B, 57100

Orbit data source: Space-Track

DELTA 4 R/B, 57100 is space debris in GEO originally from a launch on Thu, 22 Jun 2023 UTC launched from the Air Force Eastern Test Range (AFETR). Debris objects in space refer to the collection of defunct objects orbiting the Earth. Examples of debris include non-operational satellites, rocket bodies, and fragments generated from explosions, collisions, or faulty payload assembly.

Not visible in the next 10 days
Identifier
57100, 2023-089B
Orbit
GEO
Country
Flag of USUS
Related business
Flag of USUnited Launch Alliance/Lockheed Martin (US)
Manufacturer
ULA Decatur
Mission
Spacecraft
Bus & Motor
DCSS-5, RL10B-2
Mass
3,450 kg wet, 3,450 kg dry
Launch date (UTC)
Icon of a cake. It is the launch day of the satellite!2023-06-22 (3 years ago)
Launch vehicle
Unknown
Launch site
Air Force Eastern Test Range (AFETR)
Object type
Payload
Rocket body
Debris
Shape & HBR
Cyl + 1 Nozzle, 6.8 m
Radar Cross Section
64.942 m²

Expand to show TLE details & history
Last TLE update: 3 days ago

TLE from 3 days ago
0 DELTA 4 R/B
1 57100U 23089B   26170.50466710 -.00000089  00000-0  00000-0 0  9998
2 57100   2.3509 181.3928 0176484  76.0674 285.8833  0.96425640  7477
Epoch: 2026-06-19T12:06Z
TLE epoch observation values (Epoch: 2026-06-19T12:06:43.237Z)
Latitude
-0°
Longitude
91.98081°
Altitude
36,703.911 km
Speed
3.049 km/s
True Right ascension
12h 05m 34s
True Declination
0° 00' 00"
Sunlit
Object was in daylight at epoch
Visualization orbit readout
Latitude
Unknown
Longitude
Unknown
Altitude
Unknown
Speed
Unknown
Apparent Right ascension
Unknown
Apparent Declination
Unknown
Sunlit
N/A
Visualization observer readout
Local Sidereal Time
21:27:47
Azimuth
Unknown
Elevation
Unknown
Doppler factor
Unknown
Orbital elements
Apogee altitude
37,665.35 km
Perigee altitude
36,137.716 km
Semi-major axis
43,279.67 km
Eccentricity
0.01765
Inclination
2.3509°
RAAN
181.3928°
Arg. of periapsis
76.0674°
True anomaly
283.92672°
Mean anomaly
285.8833°
Eccentric anomaly
284.90615°
Mean motion
0.24106 °/min
Orbital period
1,493.43 mins
BSTAR
0
Loading maneuver chart data...
Computing Atmospheric mass density...
Loading historical data...
Loading historical data...
Loading historical data...
Loading historical data...
Loading historical data...
Loading historical data...
Loading historical data...
Other satellites on launch #89 in the year 2023 (2023-06-22 UTC)

Documentation

Showing up to 5 results
|